Simultaneous Nadir Overpasses (SNOs) Predictions

Prediction of SNOs between NOAA-20 and NOAA-19 Satellite Orbit:

Table of predicted SNOs for the next 14.0 days since TLE Epoch: 7/18/2020
Index Date (NOAA-20) Time (NOAA-20) Lat,Lon (NOAA-20) SZA (NOAA-20 ) Date (NOAA-19) Time (NOAA-19) Lat,Lon (NOAA-19) SZA (NOAA-19 ) Distance(km) Time Diff (sec)
1 07/24/2020 03:06:17 -79.19, -78.42 118.71 07/24/2020 03:05:07 -79.22, -78.40 118.66 3.14 70
2 07/24/2020 03:57:03 79.22, 88.72 61.34 07/24/2020 03:56:03 79.19, 88.64 61.36 3.01 60
3 07/24/2020 04:47:48 -79.23,-104.09 118.63 07/24/2020 04:47:08 -79.21,-104.02 118.64 3.14 40
4 07/24/2020 05:38:33 79.22, 63.31 61.37 07/24/2020 05:38:03 79.21, 63.29 61.37 1.20 30
5 07/24/2020 06:29:18 -79.24,-129.49 118.61 07/24/2020 06:29:08 -79.22,-129.37 118.63 2.98 10
6 07/24/2020 07:20:02 79.23, 37.90 61.39 07/24/2020 07:20:02 79.23, 37.94 61.38 0.97 0
7 07/24/2020 08:10:47 -79.24,-154.90 118.58 07/24/2020 08:11:07 -79.24,-154.72 118.61 3.82 20
8 07/24/2020 09:01:32 79.23, 12.49 61.41 07/24/2020 09:02:02 79.25, 12.59 61.40 2.75 30
9 07/24/2020 09:52:17 -79.25, 179.69 118.56 07/24/2020 09:53:08 -79.23, 179.66 118.60 2.23 51
10 07/24/2020 10:43:02 79.24, -12.92 61.43 07/24/2020 10:44:03 79.23, -13.02 61.41 2.16 61
